Wetterdaten: Dienstag, 04.02.2014
Datum Zeit Temp. A. Temp. A. min Temp. A. max Feuchte A. Bod.Feucht 4 Luftdruck Regen Wind Richtung Richtung Sonnenschein ET Solar Taupunkt Windchill Windben Empfang
04.02.2014 00:00 0,0 C 0,0 C 0,0 C 89 % 0 cb 1006,5 hPa 0,0 l/m 0,0 km/h (0 Bft) N-NO 25 0 min 0,000 mm 0 W/m -1,6 C 0,0 C 0,0 km/h (0 Bft) 0,00 %
04.02.2014 00:05 0,0 C 0,0 C 0,0 C 89 % 0 cb 1006,5 hPa 0,0 l/m 0,0 km/h (0 Bft) N 10 0 min 0,000 mm 0 W/m -1,6 C 0,0 C 0,0 km/h (0 Bft) 0,00 %
04.02.2014 00:10 0,0 C 0,0 C 0,0 C 89 % 0 cb 1006,5 hPa 0,0 l/m 0,0 km/h (0 Bft) N-NW 345 0 min 0,000 mm 0 W/m -1,6 C 0,0 C 0,0 km/h (0 Bft) 0,00 %
04.02.2014 00:15 0,0 C 0,0 C 0,0 C 89 % 0 cb 1006,5 hPa 0,0 l/m 0,0 km/h (0 Bft) N-NW 335 0 min 0,000 mm 0 W/m -1,6 C 0,0 C 0,0 km/h (0 Bft) 0,00 %
04.02.2014 00:20 0,0 C 0,0 C 0,0 C 89 % 0 cb 1006,5 hPa 0,0 l/m 0,0 km/h (0 Bft) NO 35 0 min 0,000 mm 0 W/m -1,6 C 0,0 C 0,0 km/h (0 Bft) 0,00 %
04.02.2014 00:25 0,0 C 0,0 C 0,0 C 89 % 0 cb 1006,5 hPa 0,0 l/m 0,0 km/h (0 Bft) N 10 0 min 0,000 mm 0 W/m -1,6 C 0,0 C 0,0 km/h (0 Bft) 0,00 %
04.02.2014 00:30 0,0 C 0,0 C 0,0 C 89 % 0 cb 1006,5 hPa 0,0 l/m 0,9 km/h (0 Bft) O-NO 60 0 min 0,000 mm 0 W/m -1,6 C 0,0 C 0,9 km/h (0 Bft) 0,00 %
04.02.2014 00:35 0,0 C 0,0 C 0,0 C 89 % 0 cb 1006,5 hPa 0,0 l/m 0,9 km/h (0 Bft) W 270 0 min 0,000 mm 0 W/m -1,6 C 0,0 C 0,9 km/h (0 Bft) 0,00 %
04.02.2014 00:40 0,0 C 0,0 C 0,0 C 89 % 0 cb 1006,5 hPa 0,0 l/m 0,0 km/h (0 Bft) N-NW 345 0 min 0,000 mm 0 W/m -1,6 C 0,0 C 0,0 km/h (0 Bft) 0,00 %
04.02.2014 00:45 0,0 C 0,0 C 0,0 C 89 % 0 cb 1006,5 hPa 0,0 l/m 3,6 km/h (1 Bft) N-NW 330 0 min 0,000 mm 0 W/m -1,6 C 0,0 C 3,6 km/h (1 Bft) 0,00 %
04.02.2014 00:50 0,0 C 0,0 C 0,0 C 89 % 0 cb 1006,5 hPa 0,0 l/m 0,0 km/h (0 Bft) N-NO 25 0 min 0,000 mm 0 W/m -1,6 C 0,0 C 0,0 km/h (0 Bft) 0,00 %
04.02.2014 00:55 0,0 C 0,0 C 0,0 C 89 % 0 cb 1006,5 hPa 0,0 l/m 0,3 km/h (0 Bft) NO 40 0 min 0,000 mm 0 W/m -1,6 C 0,0 C 0,3 km/h (0 Bft) 0,00 %
04.02.2014 01:00 0,0 C 0,0 C 0,0 C 89 % 0 cb 1006,5 hPa 0,0 l/m 0,6 km/h (0 Bft) O 95 0 min 0,000 mm 0 W/m -1,6 C 0,0 C 0,6 km/h (0 Bft) 0,00 %
04.02.2014 01:05 0,0 C 0,0 C 0,0 C 89 % 0 cb 1006,5 hPa 0,0 l/m 0,0 km/h (0 Bft) N-NO 15 0 min 0,000 mm 0 W/m -1,6 C 0,0 C 0,0 km/h (0 Bft) 0,00 %
04.02.2014 01:10 0,0 C 0,0 C 0,0 C 89 % 0 cb 1006,5 hPa 0,0 l/m 0,0 km/h (0 Bft) N-NW 330 0 min 0,000 mm 0 W/m -1,6 C 0,0 C 0,0 km/h (0 Bft) 0,00 %
04.02.2014 01:15 0,0 C 0,0 C 0,0 C 89 % 0 cb 1006,5 hPa 0,0 l/m 0,0 km/h (0 Bft) N-NW 330 0 min 0,000 mm 0 W/m -1,6 C 0,0 C 0,0 km/h (0 Bft) 0,00 %
04.02.2014 01:20 0,0 C 0,0 C 0,0 C 89 % 0 cb 1006,5 hPa 0,0 l/m 0,0 km/h (0 Bft) N-NO 25 0 min 0,000 mm 0 W/m -1,6 C 0,0 C 0,0 km/h (0 Bft) 0,00 %
04.02.2014 01:25 0,0 C 0,0 C 0,0 C 89 % 0 cb 1006,5 hPa 0,0 l/m 0,0 km/h (0 Bft) N-NW 335 0 min 0,000 mm 0 W/m -1,6 C 0,0 C 0,0 km/h (0 Bft) 0,00 %
04.02.2014 01:30 -0,1 C 0,0 C 0,0 C 89 % 0 cb 1006,5 hPa 0,0 l/m 0,0 km/h (0 Bft) N 10 0 min 0,000 mm 0 W/m -1,7 C -0,1 C 0,0 km/h (0 Bft) 0,00 %
04.02.2014 01:35 0,0 C 0,0 C 0,0 C 89 % 0 cb 1006,5 hPa 0,0 l/m 0,0 km/h (0 Bft) O-NO 60 0 min 0,000 mm 0 W/m -1,6 C 0,0 C 0,0 km/h (0 Bft) 0,00 %
04.02.2014 01:40 0,2 C 0,0 C 0,0 C 89 % 0 cb 1006,5 hPa 0,0 l/m 0,0 km/h (0 Bft) N 5 0 min 0,000 mm 0 W/m -1,4 C 0,2 C 0,0 km/h (0 Bft) 0,00 %
04.02.2014 01:45 0,2 C 0,0 C 0,0 C 89 % 0 cb 1006,5 hPa 0,0 l/m 0,0 km/h (0 Bft) W-NW 290 0 min 0,000 mm 0 W/m -1,4 C 0,2 C 0,0 km/h (0 Bft) 0,00 %
04.02.2014 01:50 0,3 C 0,0 C 0,0 C 89 % 0 cb 1006,5 hPa 0,0 l/m 0,0 km/h (0 Bft) N-NW 340 0 min 0,000 mm 0 W/m -1,3 C 0,3 C 0,0 km/h (0 Bft) 0,00 %
04.02.2014 01:55 0,5 C 0,0 C 0,0 C 89 % 0 cb 1006,5 hPa 0,0 l/m 0,0 km/h (0 Bft) O 85 0 min 0,000 mm 0 W/m -1,1 C 0,5 C 0,0 km/h (0 Bft) 0,00 %
04.02.2014 02:00 0,6 C 0,0 C 0,0 C 89 % 0 cb 1006,5 hPa 0,0 l/m 0,0 km/h (0 Bft) N-NO 15 0 min 0,000 mm 0 W/m -1,0 C 0,6 C 0,0 km/h (0 Bft) 0,00 %
04.02.2014 02:05 0,7 C 0,0 C 0,0 C 89 % 0 cb 1006,5 hPa 0,0 l/m 0,0 km/h (0 Bft) NO 35 0 min 0,000 mm 0 W/m -0,9 C 0,7 C 0,0 km/h (0 Bft) 0,00 %
04.02.2014 02:10 0,8 C 0,0 C 0,0 C 89 % 0 cb 1006,5 hPa 0,0 l/m 0,0 km/h (0 Bft) W-SW 250 0 min 0,000 mm 0 W/m -0,8 C 0,8 C 0,0 km/h (0 Bft) 0,00 %
04.02.2014 02:15 0,9 C 0,0 C 0,0 C 89 % 0 cb 1006,5 hPa 0,0 l/m 2,4 km/h (1 Bft) NO 35 0 min 0,000 mm 0 W/m -0,7 C 0,9 C 2,4 km/h (1 Bft) 0,00 %
04.02.2014 02:20 0,9 C 0,0 C 0,0 C 89 % 0 cb 1006,5 hPa 0,0 l/m 0,0 km/h (0 Bft) N 5 0 min 0,000 mm 0 W/m -0,7 C 0,9 C 0,0 km/h (0 Bft) 0,00 %
04.02.2014 02:25 0,9 C 0,0 C 0,0 C 89 % 0 cb 1006,5 hPa 0,0 l/m 0,3 km/h (0 Bft) S 185 0 min 0,000 mm 0 W/m -0,7 C 0,9 C 0,3 km/h (0 Bft) 0,00 %
04.02.2014 02:30 0,9 C 0,0 C 0,0 C 89 % 0 cb 1006,5 hPa 0,0 l/m 0,0 km/h (0 Bft) N 355 0 min 0,000 mm 0 W/m -0,7 C 0,9 C 0,0 km/h (0 Bft) 0,00 %
04.02.2014 02:35 0,9 C 0,0 C 0,0 C 89 % 0 cb 1006,5 hPa 0,0 l/m 0,0 km/h (0 Bft) N 10 0 min 0,000 mm 0 W/m -0,7 C 0,9 C 0,0 km/h (0 Bft) 0,00 %
04.02.2014 02:40 0,9 C 0,0 C 0,0 C 89 % 0 cb 1006,5 hPa 0,0 l/m 0,0 km/h (0 Bft) N-NO 30 0 min 0,000 mm 0 W/m -0,7 C 0,9 C 0,0 km/h (0 Bft) 0,00 %
04.02.2014 02:45 0,9 C 0,0 C 0,0 C 89 % 0 cb 1006,5 hPa 0,0 l/m 0,0 km/h (0 Bft) N-NW 345 0 min 0,000 mm 0 W/m -0,7 C 0,9 C 0,0 km/h (0 Bft) 0,00 %
04.02.2014 02:50 0,8 C 0,0 C 0,0 C 89 % 0 cb 1006,5 hPa 0,0 l/m 2,4 km/h (1 Bft) N-NO 25 0 min 0,000 mm 0 W/m -0,8 C 0,8 C 2,4 km/h (1 Bft) 0,00 %
04.02.2014 02:55 0,8 C 0,0 C 0,0 C 89 % 0 cb 1006,5 hPa 0,0 l/m 0,0 km/h (0 Bft) N 0 0 min 0,000 mm 0 W/m -0,8 C 0,8 C 0,0 km/h (0 Bft) 0,00 %
04.02.2014 03:00 0,7 C 0,0 C 0,0 C 89 % 0 cb 1006,5 hPa 0,0 l/m 0,0 km/h (0 Bft) W-NW 300 0 min 0,000 mm 0 W/m -0,9 C 0,7 C 0,0 km/h (0 Bft) 0,00 %
04.02.2014 03:05 0,6 C 0,0 C 0,0 C 89 % 0 cb 1006,5 hPa 0,0 l/m 0,0 km/h (0 Bft) SO 145 0 min 0,000 mm 0 W/m -1,0 C 0,6 C 0,0 km/h (0 Bft) 0,00 %
04.02.2014 03:10 0,7 C 0,0 C 0,0 C 89 % 0 cb 1006,5 hPa 0,0 l/m 0,0 km/h (0 Bft) NW 325 0 min 0,000 mm 0 W/m -0,9 C 0,7 C 0,0 km/h (0 Bft) 0,00 %
04.02.2014 03:15 0,8 C 0,0 C 0,0 C 89 % 0 cb 1006,5 hPa 0,0 l/m 2,7 km/h (1 Bft) N-NO 25 0 min 0,000 mm 0 W/m -0,8 C 0,8 C 2,7 km/h (1 Bft) 0,00 %
04.02.2014 03:20 1,1 C 0,0 C 0,0 C 89 % 0 cb 1006,5 hPa 0,0 l/m 0,0 km/h (0 Bft) N 10 0 min 0,000 mm 0 W/m -0,5 C 1,1 C 0,0 km/h (0 Bft) 0,00 %
04.02.2014 03:25 1,2 C 0,0 C 0,0 C 89 % 0 cb 1006,5 hPa 0,0 l/m 0,0 km/h (0 Bft) O 90 0 min 0,000 mm 0 W/m -0,4 C 1,2 C 0,0 km/h (0 Bft) 0,00 %
04.02.2014 03:30 1,3 C 0,0 C 0,0 C 88 % 0 cb 1006,5 hPa 0,0 l/m 0,0 km/h (0 Bft) N-NO 25 0 min 0,000 mm 0 W/m -0,5 C 1,3 C 0,0 km/h (0 Bft) 0,00 %
04.02.2014 03:35 1,2 C 0,0 C 0,0 C 88 % 0 cb 1006,5 hPa 0,0 l/m 0,0 km/h (0 Bft) O-NO 60 0 min 0,000 mm 0 W/m -0,6 C 1,2 C 0,0 km/h (0 Bft) 0,00 %
04.02.2014 03:40 1,3 C 0,0 C 0,0 C 88 % 0 cb 1006,5 hPa 0,0 l/m 0,0 km/h (0 Bft) NW 315 0 min 0,000 mm 0 W/m -0,5 C 1,3 C 0,0 km/h (0 Bft) 0,00 %
04.02.2014 03:45 1,2 C 0,0 C 0,0 C 88 % 0 cb 1006,5 hPa 0,0 l/m 0,0 km/h (0 Bft) N 10 0 min 0,000 mm 0 W/m -0,6 C 1,2 C 0,0 km/h (0 Bft) 0,00 %
04.02.2014 03:50 1,2 C 0,0 C 0,0 C 88 % 0 cb 1006,5 hPa 0,0 l/m 0,0 km/h (0 Bft) N-NW 335 0 min 0,000 mm 0 W/m -0,6 C 1,2 C 0,0 km/h (0 Bft) 0,00 %
04.02.2014 03:55 1,3 C 0,0 C 0,0 C 88 % 0 cb 1006,5 hPa 0,0 l/m 0,0 km/h (0 Bft) NW 320 0 min 0,000 mm 0 W/m -0,5 C 1,3 C 0,0 km/h (0 Bft) 0,00 %
04.02.2014 04:00 1,3 C 0,0 C 0,0 C 88 % 0 cb 1006,5 hPa 0,0 l/m 0,0 km/h (0 Bft) N 5 0 min 0,000 mm 0 W/m -0,5 C 1,3 C 0,0 km/h (0 Bft) 0,00 %
04.02.2014 04:05 1,3 C 0,0 C 0,0 C 88 % 0 cb 1006,5 hPa 0,0 l/m 0,0 km/h (0 Bft) NO 50 0 min 0,000 mm 0 W/m -0,5 C 1,3 C 0,0 km/h (0 Bft) 0,00 %
04.02.2014 04:10 1,3 C 0,0 C 0,0 C 88 % 0 cb 1006,5 hPa 0,0 l/m 0,0 km/h (0 Bft) O-NO 65 0 min 0,000 mm 0 W/m -0,5 C 1,3 C 0,0 km/h (0 Bft) 0,00 %
04.02.2014 04:15 1,3 C 0,0 C 0,0 C 88 % 0 cb 1006,5 hPa 0,0 l/m 0,0 km/h (0 Bft) O-NO 75 0 min 0,000 mm 0 W/m -0,5 C 1,3 C 0,0 km/h (0 Bft) 0,00 %
04.02.2014 04:20 1,3 C 0,0 C 0,0 C 88 % 0 cb 1006,5 hPa 0,0 l/m 0,0 km/h (0 Bft) SO 140 0 min 0,000 mm 0 W/m -0,5 C 1,3 C 0,0 km/h (0 Bft) 0,00 %
04.02.2014 04:25 1,2 C 0,0 C 0,0 C 88 % 0 cb 1007,5 hPa 0,0 l/m 0,0 km/h (0 Bft) O-NO 65 0 min 0,000 mm 0 W/m -0,6 C 1,2 C 0,0 km/h (0 Bft) 0,00 %
04.02.2014 04:30 1,3 C 0,0 C 0,0 C 88 % 0 cb 1007,5 hPa 0,0 l/m 0,0 km/h (0 Bft) NO 40 0 min 0,000 mm 0 W/m -0,5 C 1,3 C 0,0 km/h (0 Bft) 0,00 %
04.02.2014 04:35 1,3 C 0,0 C 0,0 C 88 % 0 cb 1007,5 hPa 0,0 l/m 0,0 km/h (0 Bft) NO 50 0 min 0,000 mm 0 W/m -0,5 C 1,3 C 0,0 km/h (0 Bft) 0,00 %
04.02.2014 04:40 1,3 C 0,0 C 0,0 C 88 % 0 cb 1007,5 hPa 0,0 l/m 0,0 km/h (0 Bft) NO 50 0 min 0,000 mm 0 W/m -0,5 C 1,3 C 0,0 km/h (0 Bft) 0,00 %
04.02.2014 04:45 1,3 C 0,0 C 0,0 C 88 % 0 cb 1007,5 hPa 0,0 l/m 0,0 km/h (0 Bft) O-NO 65 0 min 0,000 mm 0 W/m -0,5 C 1,3 C 0,0 km/h (0 Bft) 0,00 %
04.02.2014 04:50 1,3 C 0,0 C 0,0 C 88 % 0 cb 1007,5 hPa 0,0 l/m 0,0 km/h (0 Bft) N-NO 15 0 min 0,000 mm 0 W/m -0,5 C 1,3 C 0,0 km/h (0 Bft) 0,00 %
04.02.2014 04:55 1,2 C 0,0 C 0,0 C 88 % 0 cb 1006,5 hPa 0,0 l/m 0,0 km/h (0 Bft) NO 45 0 min 0,000 mm 0 W/m -0,6 C 1,2 C 0,0 km/h (0 Bft) 0,00 %
04.02.2014 05:00 1,2 C 0,0 C 0,0 C 88 % 0 cb 1006,5 hPa 0,0 l/m 0,0 km/h (0 Bft) O 80 0 min 0,000 mm 0 W/m -0,6 C 1,2 C 0,0 km/h (0 Bft) 0,00 %
04.02.2014 05:05 1,2 C 0,0 C 0,0 C 88 % 0 cb 1006,5 hPa 0,0 l/m 0,0 km/h (0 Bft) N-NW 340 0 min 0,000 mm 0 W/m -0,6 C 1,2 C 0,0 km/h (0 Bft) 0,00 %
04.02.2014 05:10 1,2 C 0,0 C 0,0 C 88 % 0 cb 1006,5 hPa 0,0 l/m 0,0 km/h (0 Bft) O-SO 105 0 min 0,000 mm 0 W/m -0,6 C 1,2 C 0,0 km/h (0 Bft) 0,00 %
04.02.2014 05:15 1,1 C 0,0 C 0,0 C 88 % 0 cb 1006,5 hPa 0,0 l/m 0,0 km/h (0 Bft) O 80 0 min 0,000 mm 0 W/m -0,7 C 1,1 C 0,0 km/h (0 Bft) 0,00 %
04.02.2014 05:20 1,0 C 0,0 C 0,0 C 88 % 0 cb 1006,5 hPa 0,0 l/m 0,0 km/h (0 Bft) O-NO 60 0 min 0,000 mm 0 W/m -0,8 C 1,0 C 0,0 km/h (0 Bft) 0,00 %
04.02.2014 05:25 1,0 C 0,0 C 0,0 C 88 % 0 cb 1006,5 hPa 0,0 l/m 0,0 km/h (0 Bft) N 350 0 min 0,000 mm 0 W/m -0,8 C 1,0 C 0,0 km/h (0 Bft) 0,00 %
04.02.2014 05:30 0,9 C 0,0 C 0,0 C 88 % 0 cb 1006,5 hPa 0,0 l/m 0,0 km/h (0 Bft) NW 320 0 min 0,000 mm 0 W/m -0,9 C 0,9 C 0,0 km/h (0 Bft) 0,00 %
04.02.2014 05:35 0,9 C 0,0 C 0,0 C 88 % 0 cb 1006,5 hPa 0,0 l/m 0,0 km/h (0 Bft) N-NW 330 0 min 0,000 mm 0 W/m -0,9 C 0,9 C 0,0 km/h (0 Bft) 0,00 %
04.02.2014 05:40 0,9 C 0,0 C 0,0 C 89 % 0 cb 1007,5 hPa 0,0 l/m 0,0 km/h (0 Bft) N-NO 30 0 min 0,000 mm 0 W/m -0,7 C 0,9 C 0,0 km/h (0 Bft) 0,00 %
04.02.2014 05:45 0,9 C 0,0 C 0,0 C 89 % 0 cb 1007,5 hPa 0,0 l/m 0,0 km/h (0 Bft) O 80 0 min 0,000 mm 0 W/m -0,7 C 0,9 C 0,0 km/h (0 Bft) 0,00 %
04.02.2014 05:50 1,0 C 0,0 C 0,0 C 89 % 0 cb 1007,5 hPa 0,0 l/m 0,0 km/h (0 Bft) N-NO 20 0 min 0,000 mm 0 W/m -0,6 C 1,0 C 0,0 km/h (0 Bft) 0,00 %
04.02.2014 05:55 1,0 C 0,0 C 0,0 C 89 % 0 cb 1007,5 hPa 0,0 l/m 0,0 km/h (0 Bft) N-NO 15 0 min 0,000 mm 0 W/m -0,6 C 1,0 C 0,0 km/h (0 Bft) 0,00 %
04.02.2014 06:00 1,0 C 0,0 C 0,0 C 89 % 0 cb 1007,5 hPa 0,0 l/m 0,0 km/h (0 Bft) N-NW 330 0 min 0,000 mm 0 W/m -0,6 C 1,0 C 0,0 km/h (0 Bft) 0,00 %
04.02.2014 06:05 0,9 C 0,0 C 0,0 C 89 % 0 cb 1007,5 hPa 0,0 l/m 0,0 km/h (0 Bft) NW 310 0 min 0,000 mm 0 W/m -0,7 C 0,9 C 0,0 km/h (0 Bft) 0,00 %
04.02.2014 06:10 0,9 C 0,0 C 0,0 C 89 % 0 cb 1006,5 hPa 0,0 l/m 0,0 km/h (0 Bft) NO 40 0 min 0,000 mm 0 W/m -0,7 C 0,9 C 0,0 km/h (0 Bft) 0,00 %
04.02.2014 06:15 1,0 C 0,0 C 0,0 C 89 % 0 cb 1006,5 hPa 0,0 l/m 0,0 km/h (0 Bft) N 5 0 min 0,000 mm 0 W/m -0,6 C 1,0 C 0,0 km/h (0 Bft) 0,00 %
04.02.2014 06:20 1,0 C 0,0 C 0,0 C 89 % 0 cb 1006,5 hPa 0,0 l/m 0,0 km/h (0 Bft) NO 35 0 min 0,000 mm 0 W/m -0,6 C 1,0 C 0,0 km/h (0 Bft) 0,00 %
04.02.2014 06:25 1,0 C 0,0 C 0,0 C 89 % 0 cb 1006,5 hPa 0,0 l/m 0,0 km/h (0 Bft) NO 50 0 min 0,000 mm 0 W/m -0,6 C 1,0 C 0,0 km/h (0 Bft) 0,00 %
04.02.2014 06:30 1,2 C 0,0 C 0,0 C 89 % 0 cb 1006,5 hPa 0,0 l/m 0,0 km/h (0 Bft) O-SO 120 0 min 0,000 mm 0 W/m -0,4 C 1,2 C 0,0 km/h (0 Bft) 0,00 %
04.02.2014 06:35 1,3 C 0,0 C 0,0 C 89 % 0 cb 1006,5 hPa 0,0 l/m 0,0 km/h (0 Bft) N-NW 340 0 min 0,000 mm 0 W/m -0,3 C 1,3 C 0,0 km/h (0 Bft) 0,00 %
04.02.2014 06:40 1,3 C 0,0 C 0,0 C 89 % 0 cb 1006,5 hPa 0,0 l/m 0,0 km/h (0 Bft) N 355 0 min 0,000 mm 0 W/m -0,3 C 1,3 C 0,0 km/h (0 Bft) 0,00 %
04.02.2014 06:45 1,1 C 0,0 C 0,0 C 89 % 0 cb 1006,5 hPa 0,0 l/m 0,0 km/h (0 Bft) N 10 0 min 0,000 mm 0 W/m -0,5 C 1,1 C 0,0 km/h (0 Bft) 0,00 %
04.02.2014 06:50 1,2 C 0,0 C 0,0 C 89 % 0 cb 1006,5 hPa 0,0 l/m 0,0 km/h (0 Bft) N 5 0 min 0,000 mm 0 W/m -0,4 C 1,2 C 0,0 km/h (0 Bft) 0,00 %
04.02.2014 06:55 1,2 C 0,0 C 0,0 C 88 % 0 cb 1007,5 hPa 0,0 l/m 0,0 km/h (0 Bft) N 0 0 min 0,000 mm 0 W/m -0,6 C 1,2 C 0,0 km/h (0 Bft) 0,00 %
04.02.2014 07:00 1,2 C 0,0 C 0,0 C 89 % 0 cb 1007,5 hPa 0,0 l/m 0,0 km/h (0 Bft) NW 315 0 min 0,000 mm 0 W/m -0,4 C 1,2 C 0,0 km/h (0 Bft) 0,00 %
04.02.2014 07:05 1,3 C 0,0 C 0,0 C 88 % 0 cb 1007,5 hPa 0,0 l/m 0,9 km/h (0 Bft) W 275 0 min 0,000 mm 0 W/m -0,5 C 1,3 C 0,9 km/h (0 Bft) 0,00 %
04.02.2014 07:10 1,4 C 0,0 C 0,0 C 89 % 0 cb 1007,5 hPa 0,0 l/m 0,0 km/h (0 Bft) S 190 0 min 0,000 mm 0 W/m -0,2 C 1,4 C 0,0 km/h (0 Bft) 0,00 %
04.02.2014 07:15 1,6 C 0,0 C 0,0 C 88 % 0 cb 1007,5 hPa 0,0 l/m 0,0 km/h (0 Bft) NO 45 0 min 0,000 mm 0 W/m -0,2 C 1,6 C 0,0 km/h (0 Bft) 0,00 %
04.02.2014 07:20 1,6 C 0,0 C 0,0 C 88 % 0 cb 1007,5 hPa 0,0 l/m 0,0 km/h (0 Bft) S-SO 165 0 min 0,000 mm 0 W/m -0,2 C 1,6 C 0,0 km/h (0 Bft) 0,00 %
04.02.2014 07:25 1,5 C 0,0 C 0,0 C 88 % 0 cb 1007,5 hPa 0,0 l/m 0,0 km/h (0 Bft) N-NO 30 0 min 0,000 mm 0 W/m -0,3 C 1,5 C 0,0 km/h (0 Bft) 0,00 %
04.02.2014 07:30 1,3 C 0,0 C 0,0 C 88 % 0 cb 1007,5 hPa 0,0 l/m 0,0 km/h (0 Bft) W-NW 290 0 min 0,000 mm 0 W/m -0,5 C 1,3 C 0,0 km/h (0 Bft) 0,00 %
04.02.2014 07:35 1,1 C 0,0 C 0,0 C 88 % 0 cb 1007,5 hPa 0,0 l/m 0,0 km/h (0 Bft) O-NO 60 0 min 0,000 mm 0 W/m -0,7 C 1,1 C 0,0 km/h (0 Bft) 0,00 %
04.02.2014 07:40 1,3 C 0,0 C 0,0 C 88 % 0 cb 1007,5 hPa 0,0 l/m 0,0 km/h (0 Bft) N 350 0 min 0,000 mm 0 W/m -0,5 C 1,3 C 0,0 km/h (0 Bft) 0,00 %
04.02.2014 07:45 1,3 C 0,0 C 0,0 C 88 % 0 cb 1007,5 hPa 0,0 l/m 0,0 km/h (0 Bft) S-SW 200 0 min 0,000 mm 0 W/m -0,5 C 1,3 C 0,0 km/h (0 Bft) 0,00 %
04.02.2014 07:50 1,1 C 0,0 C 0,0 C 87 % 0 cb 1007,5 hPa 0,0 l/m 0,0 km/h (0 Bft) NW 320 0 min 0,000 mm 0 W/m -0,8 C 1,1 C 0,0 km/h (0 Bft) 0,00 %
04.02.2014 07:55 0,9 C 0,0 C 0,0 C 88 % 0 cb 1007,5 hPa 0,0 l/m 0,0 km/h (0 Bft) N-NW 340 0 min 0,000 mm 0 W/m -0,9 C 0,9 C 0,0 km/h (0 Bft) 0,00 %
04.02.2014 08:00 0,9 C 0,0 C 0,0 C 88 % 0 cb 1007,5 hPa 0,0 l/m 0,0 km/h (0 Bft) N-NW 340 0 min 0,000 mm 0 W/m -0,9 C 0,9 C 0,0 km/h (0 Bft) 0,00 %
04.02.2014 08:05 1,0 C 0,0 C 0,0 C 87 % 0 cb 1007,5 hPa 0,0 l/m 0,0 km/h (0 Bft) N-NW 335 0 min 0,000 mm 0 W/m -0,9 C 1,0 C 0,0 km/h (0 Bft) 0,00 %
04.02.2014 08:10 1,1 C 0,0 C 0,0 C 87 % 0 cb 1007,5 hPa 0,0 l/m 0,0 km/h (0 Bft) N-NW 345 0 min 0,000 mm 0 W/m -0,8 C 1,1 C 0,0 km/h (0 Bft) 0,00 %
04.02.2014 08:15 1,1 C 0,0 C 0,0 C 87 % 0 cb 1007,5 hPa 0,0 l/m 0,0 km/h (0 Bft) N-NO 15 0 min 0,000 mm 0 W/m -0,8 C 1,1 C 0,0 km/h (0 Bft) 0,00 %
04.02.2014 08:20 1,5 C 0,0 C 0,0 C 87 % 0 cb 1007,5 hPa 0,0 l/m 5,4 km/h (1 Bft) W 280 0 min 0,000 mm 0 W/m -0,4 C -0,1 C 5,4 km/h (1 Bft) 0,00 %
04.02.2014 08:25 1,6 C 0,0 C 0,0 C 87 % 0 cb 1008,5 hPa 0,0 l/m 0,0 km/h (0 Bft) N-NW 340 0 min 0,000 mm 0 W/m -0,3 C 1,6 C 0,0 km/h (0 Bft) 0,00 %
04.02.2014 08:30 1,6 C 0,0 C 0,0 C 87 % 0 cb 1008,5 hPa 0,0 l/m 0,0 km/h (0 Bft) W 280 0 min 0,000 mm 0 W/m -0,3 C 1,6 C 0,0 km/h (0 Bft) 0,00 %
04.02.2014 08:35 1,7 C 0,0 C 0,0 C 87 % 0 cb 1008,5 hPa 0,0 l/m 0,0 km/h (0 Bft) SW 230 0 min 0,000 mm 0 W/m -0,2 C 1,7 C 0,0 km/h (0 Bft) 0,00 %
04.02.2014 08:40 1,8 C 0,0 C 0,0 C 87 % 0 cb 1008,5 hPa 0,0 l/m 0,0 km/h (0 Bft) SO 135 0 min 0,000 mm 0 W/m -0,1 C 1,8 C 0,0 km/h (0 Bft) 0,00 %
04.02.2014 08:45 1,8 C 0,0 C 0,0 C 87 % 0 cb 1008,5 hPa 0,0 l/m 0,0 km/h (0 Bft) NO 40 0 min 0,000 mm 0 W/m -0,1 C 1,8 C 0,0 km/h (0 Bft) 0,00 %
04.02.2014 08:50 1,9 C 0,0 C 0,0 C 86 % 0 cb 1008,5 hPa 0,0 l/m 0,0 km/h (0 Bft) NW 325 0 min 0,000 mm 0 W/m -0,2 C 1,9 C 0,0 km/h (0 Bft) 0,00 %
04.02.2014 08:55 2,0 C 0,0 C 0,0 C 86 % 0 cb 1008,5 hPa 0,0 l/m 0,0 km/h (0 Bft) NO 50 0 min 0,000 mm 0 W/m -0,1 C 2,0 C 0,0 km/h (0 Bft) 0,00 %
04.02.2014 09:00 2,1 C 0,0 C 0,0 C 86 % 0 cb 1008,5 hPa 0,0 l/m 0,0 km/h (0 Bft) NO 35 0 min 0,000 mm 0 W/m 0,0 C 2,1 C 0,0 km/h (0 Bft) 0,00 %
04.02.2014 09:05 2,2 C 0,0 C 0,0 C 85 % 0 cb 1008,5 hPa 0,0 l/m 0,0 km/h (0 Bft) NO 55 0 min 0,000 mm 0 W/m -0,1 C 2,2 C 0,0 km/h (0 Bft) 0,00 %
04.02.2014 09:10 2,2 C 0,0 C 0,0 C 85 % 0 cb 1008,5 hPa 0,0 l/m 0,0 km/h (0 Bft) N 5 0 min 0,000 mm 0 W/m -0,1 C 2,2 C 0,0 km/h (0 Bft) 0,00 %
04.02.2014 09:15 2,2 C 0,0 C 0,0 C 85 % 0 cb 1008,5 hPa 0,0 l/m 0,0 km/h (0 Bft) N-NW 330 0 min 0,000 mm 0 W/m -0,1 C 2,2 C 0,0 km/h (0 Bft) 0,00 %
04.02.2014 09:20 2,3 C 0,0 C 0,0 C 85 % 0 cb 1008,5 hPa 0,0 l/m 0,0 km/h (0 Bft) NW 320 0 min 0,000 mm 0 W/m 0,0 C 2,3 C 0,0 km/h (0 Bft) 0,00 %
04.02.2014 09:25 2,3 C 0,0 C 0,0 C 85 % 0 cb 1008,5 hPa 0,0 l/m 0,0 km/h (0 Bft) NW 320 0 min 0,000 mm 0 W/m 0,0 C 2,3 C 0,0 km/h (0 Bft) 0,00 %
04.02.2014 09:30 2,5 C 0,0 C 0,0 C 85 % 0 cb 1008,5 hPa 0,0 l/m 0,0 km/h (0 Bft) NW 320 0 min 0,000 mm 0 W/m 0,2 C 2,5 C 0,0 km/h (0 Bft) 0,00 %
04.02.2014 09:35 2,6 C 0,0 C 0,0 C 84 % 0 cb 1008,5 hPa 0,0 l/m 0,0 km/h (0 Bft) SW 225 0 min 0,000 mm 0 W/m 0,2 C 2,6 C 0,0 km/h (0 Bft) 0,00 %
04.02.2014 09:40 2,7 C 0,0 C 0,0 C 84 % 0 cb 1008,5 hPa 0,0 l/m 0,0 km/h (0 Bft) S-SO 150 0 min 0,000 mm 0 W/m 0,3 C 2,7 C 0,0 km/h (0 Bft) 0,00 %
04.02.2014 09:45 2,8 C 0,0 C 0,0 C 83 % 0 cb 1008,5 hPa 0,0 l/m 0,0 km/h (0 Bft) S 175 0 min 0,000 mm 0 W/m 0,2 C 2,8 C 0,0 km/h (0 Bft) 0,00 %
04.02.2014 09:50 3,0 C 0,0 C 0,0 C 83 % 0 cb 1008,5 hPa 0,0 l/m 0,0 km/h (0 Bft) S-SO 165 0 min 0,000 mm 0 W/m 0,4 C 3,0 C 0,0 km/h (0 Bft) 0,00 %
04.02.2014 09:55 3,0 C 0,0 C 0,0 C 84 % 0 cb 1008,5 hPa 0,0 l/m 0,0 km/h (0 Bft) O-NO 75 0 min 0,000 mm 0 W/m 0,6 C 3,0 C 0,0 km/h (0 Bft) 0,00 %
04.02.2014 10:00 3,1 C 0,0 C 0,0 C 84 % 0 cb 1008,5 hPa 0,0 l/m 0,0 km/h (0 Bft) SW 230 0 min 0,000 mm 0 W/m 0,7 C 3,1 C 0,0 km/h (0 Bft) 0,00 %
04.02.2014 10:05 3,1 C 0,0 C 0,0 C 84 % 0 cb 1008,5 hPa 0,0 l/m 0,0 km/h (0 Bft) SW 220 0 min 0,000 mm 0 W/m 0,7 C 3,1 C 0,0 km/h (0 Bft) 0,00 %
04.02.2014 10:10 3,3 C 0,0 C 0,0 C 83 % 0 cb 1008,5 hPa 0,0 l/m 0,0 km/h (0 Bft) SW 230 0 min 0,000 mm 0 W/m 0,7 C 3,3 C 0,0 km/h (0 Bft) 0,00 %
04.02.2014 10:15 3,5 C 0,0 C 0,0 C 83 % 0 cb 1008,5 hPa 0,0 l/m 0,0 km/h (0 Bft) W-SW 240 0 min 0,000 mm 0 W/m 0,9 C 3,5 C 0,0 km/h (0 Bft) 0,00 %
04.02.2014 10:20 3,5 C 0,0 C 0,0 C 83 % 0 cb 1008,5 hPa 0,0 l/m 0,0 km/h (0 Bft) W-SW 240 0 min 0,000 mm 0 W/m 0,9 C 3,5 C 0,0 km/h (0 Bft) 0,00 %
04.02.2014 10:25 3,7 C 0,0 C 0,0 C 82 % 0 cb 1008,5 hPa 0,0 l/m 0,0 km/h (0 Bft) S-SO 160 0 min 0,000 mm 0 W/m 0,9 C 3,7 C 0,0 km/h (0 Bft) 0,00 %
04.02.2014 10:30 3,9 C 0,0 C 0,0 C 82 % 0 cb 1008,5 hPa 0,0 l/m 0,0 km/h (0 Bft) W-SW 255 0 min 0,000 mm 0 W/m 1,1 C 3,9 C 0,0 km/h (0 Bft) 0,00 %
04.02.2014 10:35 4,1 C 0,0 C 0,0 C 81 % 0 cb 1008,5 hPa 0,0 l/m 0,0 km/h (0 Bft) SO 130 0 min 0,000 mm 0 W/m 1,1 C 4,1 C 0,0 km/h (0 Bft) 0,00 %
04.02.2014 10:40 4,2 C 0,0 C 0,0 C 81 % 0 cb 1009,5 hPa 0,0 l/m 0,0 km/h (0 Bft) W-SW 250 0 min 0,000 mm 0 W/m 1,2 C 4,2 C 0,0 km/h (0 Bft) 0,00 %
04.02.2014 10:45 4,7 C 0,0 C 0,0 C 80 % 0 cb 1009,5 hPa 0,0 l/m 0,0 km/h (0 Bft) S-SW 200 0 min 0,000 mm 0 W/m 1,6 C 4,7 C 0,0 km/h (0 Bft) 0,00 %
04.02.2014 10:50 4,9 C 0,0 C 0,0 C 78 % 0 cb 1009,5 hPa 0,0 l/m 0,0 km/h (0 Bft) W 265 0 min 0,000 mm 0 W/m 1,4 C 4,9 C 0,0 km/h (0 Bft) 0,00 %
04.02.2014 10:55 4,9 C 0,0 C 0,0 C 77 % 0 cb 1009,5 hPa 0,0 l/m 0,0 km/h (0 Bft) O-SO 110 0 min 0,000 mm 0 W/m 1,2 C 4,9 C 0,0 km/h (0 Bft) 0,00 %
04.02.2014 11:00 5,1 C 0,0 C 0,0 C 77 % 0 cb 1009,5 hPa 0,0 l/m 0,0 km/h (0 Bft) N-NO 15 0 min 0,000 mm 0 W/m 1,4 C 5,1 C 0,0 km/h (0 Bft) 0,00 %
04.02.2014 11:05 5,8 C 0,0 C 0,0 C 76 % 0 cb 1009,5 hPa 0,0 l/m 0,0 km/h (0 Bft) W 280 0 min 0,000 mm 0 W/m 1,9 C 5,8 C 0,0 km/h (0 Bft) 0,00 %
04.02.2014 11:10 5,6 C 0,0 C 0,0 C 75 % 0 cb 1009,5 hPa 0,0 l/m 0,0 km/h (0 Bft) S-SW 200 0 min 0,000 mm 0 W/m 1,5 C 5,6 C 0,0 km/h (0 Bft) 0,00 %
04.02.2014 11:15 5,1 C 0,0 C 0,0 C 75 % 0 cb 1009,5 hPa 0,0 l/m 6,4 km/h (2 Bft) SO 145 0 min 0,000 mm 0 W/m 1,0 C 3,7 C 6,4 km/h (2 Bft) 0,00 %
04.02.2014 11:20 5,1 C 0,0 C 0,0 C 76 % 0 cb 1009,5 hPa 0,0 l/m 3,6 km/h (1 Bft) S-SW 205 0 min 0,000 mm 0 W/m 1,2 C 5,1 C 3,6 km/h (1 Bft) 0,00 %
04.02.2014 11:25 5,1 C 0,0 C 0,0 C 76 % 0 cb 1009,5 hPa 0,0 l/m 6,7 km/h (2 Bft) S 190 0 min 0,000 mm 0 W/m 1,2 C 3,6 C 6,7 km/h (2 Bft) 0,00 %
04.02.2014 11:30 4,9 C 0,0 C 0,0 C 78 % 0 cb 1009,5 hPa 0,0 l/m 4,8 km/h (1 Bft) S 170 0 min 0,000 mm 0 W/m 1,4 C 4,0 C 4,8 km/h (1 Bft) 0,00 %
04.02.2014 11:35 4,7 C 0,0 C 0,0 C 78 % 0 cb 1009,5 hPa 0,0 l/m 5,4 km/h (1 Bft) S 175 0 min 0,000 mm 0 W/m 1,2 C 3,6 C 5,4 km/h (1 Bft) 0,00 %
04.02.2014 11:40 4,7 C 0,0 C 0,0 C 79 % 0 cb 1009,5 hPa 0,0 l/m 4,8 km/h (1 Bft) S-SO 150 0 min 0,000 mm 0 W/m 1,4 C 3,8 C 4,8 km/h (1 Bft) 0,00 %
04.02.2014 11:45 4,7 C 0,0 C 0,0 C 79 % 0 cb 1009,5 hPa 0,0 l/m 9,1 km/h (2 Bft) N-NW 330 0 min 0,000 mm 0 W/m 1,4 C 2,5 C 9,1 km/h (2 Bft) 0,00 %
04.02.2014 11:50 4,8 C 0,0 C 0,0 C 78 % 0 cb 1009,5 hPa 0,0 l/m 5,4 km/h (1 Bft) S 180 0 min 0,000 mm 0 W/m 1,3 C 3,7 C 5,4 km/h (1 Bft) 0,00 %
04.02.2014 11:55 4,8 C 0,0 C 0,0 C 78 % 0 cb 1009,5 hPa 0,0 l/m 6,4 km/h (2 Bft) W-NW 300 0 min 0,000 mm 0 W/m 1,3 C 3,4 C 6,4 km/h (2 Bft) 0,00 %
04.02.2014 12:00 4,8 C 0,0 C 0,0 C 78 % 0 cb 1009,5 hPa 0,0 l/m 7,9 km/h (2 Bft) S-SO 165 0 min 0,000 mm 0 W/m 1,3 C 2,9 C 7,9 km/h (2 Bft) 0,00 %
04.02.2014 12:05 4,8 C 0,0 C 0,0 C 78 % 0 cb 1009,5 hPa 0,0 l/m 7,3 km/h (2 Bft) SO 125 0 min 0,000 mm 0 W/m 1,3 C 3,1 C 7,3 km/h (2 Bft) 0,00 %
04.02.2014 12:10 4,9 C 0,0 C 0,0 C 78 % 0 cb 1009,5 hPa 0,0 l/m 10,0 km/h (2 Bft) S-SW 195 0 min 0,000 mm 0 W/m 1,4 C 2,5 C 10,0 km/h (2 Bft) 0,00 %
04.02.2014 12:15 4,9 C 0,0 C 0,0 C 78 % 0 cb 1009,5 hPa 0,0 l/m 9,1 km/h (2 Bft) W-NW 290 0 min 0,000 mm 0 W/m 1,4 C 2,7 C 9,1 km/h (2 Bft) 0,00 %
04.02.2014 12:20 4,9 C 0,0 C 0,0 C 78 % 0 cb 1009,5 hPa 0,0 l/m 6,1 km/h (2 Bft) S-SO 150 0 min 0,000 mm 0 W/m 1,4 C 3,6 C 6,1 km/h (2 Bft) 0,00 %
04.02.2014 12:25 5,0 C 0,0 C 0,0 C 78 % 0 cb 1009,5 hPa 0,0 l/m 5,7 km/h (1 Bft) NW 305 0 min 0,000 mm 0 W/m 1,5 C 3,8 C 5,7 km/h (1 Bft) 0,00 %
04.02.2014 12:30 4,9 C 0,0 C 0,0 C 78 % 0 cb 1009,5 hPa 0,0 l/m 8,2 km/h (2 Bft) S-SO 155 0 min 0,000 mm 0 W/m 1,4 C 3,0 C 8,2 km/h (2 Bft) 0,00 %
04.02.2014 12:35 5,4 C 0,0 C 0,0 C 78 % 0 cb 1009,5 hPa 0,0 l/m 6,1 km/h (2 Bft) SW 220 0 min 0,000 mm 0 W/m 1,9 C 4,2 C 6,1 km/h (2 Bft) 0,00 %
04.02.2014 12:40 5,7 C 0,0 C 0,0 C 77 % 0 cb 1009,5 hPa 0,0 l/m 8,5 km/h (2 Bft) S-SW 200 0 min 0,000 mm 0 W/m 2,0 C 3,8 C 8,5 km/h (2 Bft) 0,00 %
04.02.2014 12:45 5,6 C 0,0 C 0,0 C 76 % 0 cb 1009,5 hPa 0,0 l/m 4,8 km/h (1 Bft) W-NW 300 0 min 0,000 mm 0 W/m 1,7 C 4,8 C 4,8 km/h (1 Bft) 0,00 %
04.02.2014 12:50 5,4 C 0,0 C 0,0 C 77 % 0 cb 1009,5 hPa 0,0 l/m 5,7 km/h (1 Bft) SW 215 0 min 0,000 mm 0 W/m 1,7 C 4,3 C 5,7 km/h (1 Bft) 0,00 %
04.02.2014 12:55 5,8 C 0,0 C 0,0 C 76 % 0 cb 1009,5 hPa 0,0 l/m 7,3 km/h (2 Bft) W 275 0 min 0,000 mm 0 W/m 1,9 C 4,3 C 7,3 km/h (2 Bft) 0,00 %
04.02.2014 13:00 5,7 C 0,0 C 0,0 C 76 % 0 cb 1009,5 hPa 0,0 l/m 5,4 km/h (1 Bft) W-NW 300 0 min 0,000 mm 0 W/m 1,8 C 4,7 C 5,4 km/h (1 Bft) 0,00 %
04.02.2014 13:05 5,9 C 0,0 C 0,0 C 75 % 0 cb 1009,5 hPa 0,0 l/m 0,0 km/h (0 Bft) S-SO 165 0 min 0,000 mm 0 W/m 1,8 C 5,9 C 0,0 km/h (0 Bft) 0,00 %
04.02.2014 13:10 6,0 C 0,0 C 0,0 C 75 % 0 cb 1009,5 hPa 0,0 l/m 7,3 km/h (2 Bft) SW 220 0 min 0,000 mm 0 W/m 1,9 C 4,5 C 7,3 km/h (2 Bft) 0,00 %
04.02.2014 13:15 6,1 C 0,0 C 0,0 C 74 % 0 cb 1009,5 hPa 0,0 l/m 5,1 km/h (1 Bft) S-SO 165 0 min 0,000 mm 0 W/m 1,8 C 5,3 C 5,1 km/h (1 Bft) 0,00 %
04.02.2014 13:20 5,4 C 0,0 C 0,0 C 75 % 0 cb 1009,5 hPa 0,0 l/m 10,9 km/h (2 Bft) S-SW 195 0 min 0,000 mm 0 W/m 1,3 C 3,0 C 10,9 km/h (2 Bft) 0,00 %
04.02.2014 13:25 5,7 C 0,0 C 0,0 C 76 % 0 cb 1009,5 hPa 0,0 l/m 5,4 km/h (1 Bft) SO 145 0 min 0,000 mm 0 W/m 1,8 C 4,7 C 5,4 km/h (1 Bft) 0,00 %
04.02.2014 13:30 6,6 C 0,0 C 0,0 C 74 % 0 cb 1009,5 hPa 0,0 l/m 14,8 km/h (3 Bft) SW 230 0 min 0,000 mm 0 W/m 2,3 C 3,8 C 14,8 km/h (3 Bft) 0,00 %
04.02.2014 13:35 7,4 C 0,0 C 0,0 C 72 % 0 cb 1009,5 hPa 0,0 l/m 7,3 km/h (2 Bft) S 180 0 min 0,000 mm 0 W/m 2,7 C 6,1 C 7,3 km/h (2 Bft) 0,00 %
04.02.2014 13:40 7,6 C 0,0 C 0,0 C 72 % 0 cb 1008,5 hPa 0,0 l/m 8,5 km/h (2 Bft) SO 145 0 min 0,000 mm 0 W/m 2,9 C 6,1 C 8,5 km/h (2 Bft) 0,00 %
04.02.2014 13:45 7,0 C 0,0 C 0,0 C 71 % 0 cb 1008,5 hPa 0,0 l/m 5,1 km/h (1 Bft) N 355 0 min 0,000 mm 0 W/m 2,1 C 6,3 C 5,1 km/h (1 Bft) 0,00 %
04.02.2014 13:50 6,4 C 0,0 C 0,0 C 73 % 0 cb 1008,5 hPa 0,0 l/m 8,5 km/h (2 Bft) O-SO 120 0 min 0,000 mm 0 W/m 1,9 C 4,7 C 8,5 km/h (2 Bft) 0,00 %
04.02.2014 13:55 6,7 C 0,0 C 0,0 C 73 % 0 cb 1008,5 hPa 0,0 l/m 5,1 km/h (1 Bft) S-SW 205 0 min 0,000 mm 0 W/m 2,2 C 6,0 C 5,1 km/h (1 Bft) 0,00 %
04.02.2014 14:00 6,9 C 0,0 C 0,0 C 72 % 0 cb 1008,5 hPa 0,0 l/m 1,8 km/h (1 Bft) W 280 0 min 0,000 mm 0 W/m 2,2 C 6,9 C 1,8 km/h (1 Bft) 0,00 %
04.02.2014 14:05 6,7 C 0,0 C 0,0 C 72 % 0 cb 1008,5 hPa 0,0 l/m 7,9 km/h (2 Bft) S-SW 200 0 min 0,000 mm 0 W/m 2,0 C 5,2 C 7,9 km/h (2 Bft) 0,00 %
04.02.2014 14:10 6,6 C 0,0 C 0,0 C 73 % 0 cb 1008,5 hPa 0,0 l/m 3,6 km/h (1 Bft) S-SW 200 0 min 0,000 mm 0 W/m 2,1 C 6,6 C 3,6 km/h (1 Bft) 0,00 %
04.02.2014 14:15 6,7 C 0,0 C 0,0 C 73 % 0 cb 1008,5 hPa 0,0 l/m 4,2 km/h (1 Bft) S-SO 155 0 min 0,000 mm 0 W/m 2,2 C 6,7 C 4,2 km/h (1 Bft) 0,00 %
04.02.2014 14:20 7,0 C 0,0 C 0,0 C 73 % 0 cb 1008,5 hPa 0,0 l/m 8,8 km/h (2 Bft) O 85 0 min 0,000 mm 0 W/m 2,5 C 5,3 C 8,8 km/h (2 Bft) 0,00 %
04.02.2014 14:25 7,0 C 0,0 C 0,0 C 72 % 0 cb 1008,5 hPa 0,0 l/m 10,0 km/h (2 Bft) NO 55 0 min 0,000 mm 0 W/m 2,3 C 5,0 C 10,0 km/h (2 Bft) 0,00 %
04.02.2014 14:30 6,4 C 0,0 C 0,0 C 73 % 0 cb 1008,5 hPa 0,0 l/m 8,8 km/h (2 Bft) S 185 0 min 0,000 mm 0 W/m 1,9 C 4,6 C 8,8 km/h (2 Bft) 0,00 %
04.02.2014 14:35 7,3 C 0,0 C 0,0 C 72 % 0 cb 1008,5 hPa 0,0 l/m 7,6 km/h (2 Bft) S 170 0 min 0,000 mm 0 W/m 2,6 C 5,9 C 7,6 km/h (2 Bft) 0,00 %
04.02.2014 14:40 7,1 C 0,0 C 0,0 C 71 % 0 cb 1008,5 hPa 0,0 l/m 5,7 km/h (1 Bft) S 175 0 min 0,000 mm 0 W/m 2,2 C 6,2 C 5,7 km/h (1 Bft) 0,00 %
04.02.2014 14:45 6,2 C 0,0 C 0,0 C 73 % 0 cb 1008,5 hPa 0,0 l/m 9,1 km/h (2 Bft) S-SO 155 0 min 0,000 mm 0 W/m 1,7 C 4,3 C 9,1 km/h (2 Bft) 0,00 %
04.02.2014 14:50 6,2 C 0,0 C 0,0 C 73 % 0 cb 1008,5 hPa 0,0 l/m 7,6 km/h (2 Bft) S-SO 165 0 min 0,000 mm 0 W/m 1,7 C 4,6 C 7,6 km/h (2 Bft) 0,00 %
04.02.2014 14:55 6,3 C 0,0 C 0,0 C 73 % 0 cb 1008,5 hPa 0,0 l/m 7,6 km/h (2 Bft) SW 225 0 min 0,000 mm 0 W/m 1,8 C 4,8 C 7,6 km/h (2 Bft) 0,00 %
04.02.2014 15:00 6,5 C 0,0 C 0,0 C 74 % 0 cb 1008,5 hPa 0,0 l/m 14,8 km/h (3 Bft) S-SO 165 0 min 0,000 mm 0 W/m 2,2 C 3,6 C 14,8 km/h (3 Bft) 0,00 %
04.02.2014 15:05 6,6 C 0,0 C 0,0 C 73 % 0 cb 1008,5 hPa 0,0 l/m 12,1 km/h (2 Bft) SW 220 0 min 0,000 mm 0 W/m 2,1 C 4,2 C 12,1 km/h (2 Bft) 0,00 %
04.02.2014 15:10 6,4 C 0,0 C 0,0 C 72 % 0 cb 1008,5 hPa 0,0 l/m 9,1 km/h (2 Bft) SO 145 0 min 0,000 mm 0 W/m 1,7 C 4,5 C 9,1 km/h (2 Bft) 0,00 %
04.02.2014 15:15 6,3 C 0,0 C 0,0 C 72 % 0 cb 1008,5 hPa 0,0 l/m 16,0 km/h (3 Bft) W-SW 240 0 min 0,000 mm 0 W/m 1,6 C 3,2 C 16,0 km/h (3 Bft) 0,00 %
04.02.2014 15:20 6,3 C 0,0 C 0,0 C 73 % 0 cb 1008,5 hPa 0,0 l/m 9,4 km/h (2 Bft) S 185 0 min 0,000 mm 0 W/m 1,8 C 4,3 C 9,4 km/h (2 Bft) 0,00 %
04.02.2014 15:25 6,1 C 0,0 C 0,0 C 73 % 0 cb 1008,5 hPa 0,0 l/m 11,5 km/h (2 Bft) S-SW 200 0 min 0,000 mm 0 W/m 1,6 C 3,7 C 11,5 km/h (2 Bft) 0,00 %
04.02.2014 15:30 6,1 C 0,0 C 0,0 C 73 % 0 cb 1008,5 hPa 0,0 l/m 13,6 km/h (3 Bft) NO 55 0 min 0,000 mm 0 W/m 1,6 C 3,3 C 13,6 km/h (3 Bft) 0,00 %
04.02.2014 15:35 6,3 C 0,0 C 0,0 C 73 % 0 cb 1008,5 hPa 0,0 l/m 7,6 km/h (2 Bft) O-SO 105 0 min 0,000 mm 0 W/m 1,8 C 4,8 C 7,6 km/h (2 Bft) 0,00 %
04.02.2014 15:40 6,2 C 0,0 C 0,0 C 73 % 0 cb 1008,5 hPa 0,0 l/m 9,4 km/h (2 Bft) S-SO 150 0 min 0,000 mm 0 W/m 1,7 C 4,2 C 9,4 km/h (2 Bft) 0,00 %
04.02.2014 15:45 6,2 C 0,0 C 0,0 C 73 % 0 cb 1008,5 hPa 0,0 l/m 13,9 km/h (3 Bft) S 170 0 min 0,000 mm 0 W/m 1,7 C 3,4 C 13,9 km/h (3 Bft) 0,00 %
04.02.2014 15:50 6,2 C 0,0 C 0,0 C 73 % 0 cb 1008,5 hPa 0,0 l/m 13,3 km/h (3 Bft) SO 140 0 min 0,000 mm 0 W/m 1,7 C 3,5 C 13,3 km/h (3 Bft) 0,00 %
04.02.2014 15:55 6,0 C 0,0 C 0,0 C 72 % 0 cb 1008,5 hPa 0,0 l/m 15,7 km/h (3 Bft) W 280 0 min 0,000 mm 0 W/m 1,3 C 2,9 C 15,7 km/h (3 Bft) 0,00 %
04.02.2014 16:00 6,0 C 0,0 C 0,0 C 73 % 0 cb 1008,5 hPa 0,0 l/m 10,0 km/h (2 Bft) S-SO 150 0 min 0,000 mm 0 W/m 1,5 C 3,9 C 10,0 km/h (2 Bft) 0,00 %
04.02.2014 16:05 5,9 C 0,0 C 0,0 C 73 % 0 cb 1008,5 hPa 0,0 l/m 8,8 km/h (2 Bft) S 180 0 min 0,000 mm 0 W/m 1,4 C 4,0 C 8,8 km/h (2 Bft) 0,00 %
04.02.2014 16:10 5,9 C 0,0 C 0,0 C 73 % 0 cb 1008,5 hPa 0,0 l/m 6,4 km/h (2 Bft) S 190 0 min 0,000 mm 0 W/m 1,4 C 4,6 C 6,4 km/h (2 Bft) 0,00 %
04.02.2014 16:15 5,8 C 0,0 C 0,0 C 74 % 0 cb 1008,5 hPa 0,0 l/m 7,6 km/h (2 Bft) S 190 0 min 0,000 mm 0 W/m 1,5 C 4,2 C 7,6 km/h (2 Bft) 0,00 %
04.02.2014 16:20 5,8 C 0,0 C 0,0 C 74 % 0 cb 1008,5 hPa 0,0 l/m 7,3 km/h (2 Bft) S-SW 195 0 min 0,000 mm 0 W/m 1,5 C 4,3 C 7,3 km/h (2 Bft) 0,00 %
04.02.2014 16:25 5,8 C 0,0 C 0,0 C 75 % 0 cb 1007,5 hPa 0,0 l/m 9,4 km/h (2 Bft) SW 235 0 min 0,000 mm 0 W/m 1,7 C 3,7 C 9,4 km/h (2 Bft) 0,00 %
04.02.2014 16:30 5,7 C 0,0 C 0,0 C 74 % 0 cb 1007,5 hPa 0,0 l/m 10,3 km/h (2 Bft) S-SO 160 0 min 0,000 mm 0 W/m 1,4 C 3,4 C 10,3 km/h (2 Bft) 0,00 %
04.02.2014 16:35 5,7 C 0,0 C 0,0 C 74 % 0 cb 1007,5 hPa 0,0 l/m 11,5 km/h (2 Bft) S 185 0 min 0,000 mm 0 W/m 1,4 C 3,2 C 11,5 km/h (2 Bft) 0,00 %
04.02.2014 16:40 5,7 C 0,0 C 0,0 C 74 % 0 cb 1007,5 hPa 0,0 l/m 7,6 km/h (2 Bft) W 270 0 min 0,000 mm 0 W/m 1,4 C 4,1 C 7,6 km/h (2 Bft) 0,00 %
04.02.2014 16:45 5,6 C 0,0 C 0,0 C 75 % 0 cb 1007,5 hPa 0,0 l/m 4,5 km/h (1 Bft) SW 225 0 min 0,000 mm 0 W/m 1,5 C 5,6 C 4,5 km/h (1 Bft) 0,00 %
04.02.2014 16:50 5,6 C 0,0 C 0,0 C 76 % 0 cb 1007,5 hPa 0,0 l/m 6,4 km/h (2 Bft) O 85 0 min 0,000 mm 0 W/m 1,7 C 4,3 C 6,4 km/h (2 Bft) 0,00 %
04.02.2014 16:55 5,5 C 0,0 C 0,0 C 76 % 0 cb 1007,5 hPa 0,0 l/m 11,5 km/h (2 Bft) S-SO 155 0 min 0,000 mm 0 W/m 1,6 C 3,0 C 11,5 km/h (2 Bft) 0,00 %
04.02.2014 17:00 5,5 C 0,0 C 0,0 C 76 % 0 cb 1007,5 hPa 0,0 l/m 8,8 km/h (2 Bft) S-SO 165 0 min 0,000 mm 0 W/m 1,6 C 3,5 C 8,8 km/h (2 Bft) 0,00 %
04.02.2014 17:05 5,5 C 0,0 C 0,0 C 76 % 0 cb 1007,5 hPa 0,0 l/m 10,0 km/h (2 Bft) S-SW 210 0 min 0,000 mm 0 W/m 1,6 C 3,3 C 10,0 km/h (2 Bft) 0,00 %
04.02.2014 17:10 5,4 C 0,0 C 0,0 C 76 % 0 cb 1008,5 hPa 0,0 l/m 5,4 km/h (1 Bft) W-NW 290 0 min 0,000 mm 0 W/m 1,5 C 4,4 C 5,4 km/h (1 Bft) 0,00 %
04.02.2014 17:15 5,3 C 0,0 C 0,0 C 76 % 0 cb 1008,5 hPa 0,0 l/m 8,5 km/h (2 Bft) SW 215 0 min 0,000 mm 0 W/m 1,4 C 3,4 C 8,5 km/h (2 Bft) 0,00 %
04.02.2014 17:20 5,3 C 0,0 C 0,0 C 77 % 0 cb 1008,5 hPa 0,0 l/m 10,6 km/h (2 Bft) O-SO 105 0 min 0,000 mm 0 W/m 1,6 C 2,9 C 10,6 km/h (2 Bft) 0,00 %
04.02.2014 17:25 5,3 C 0,0 C 0,0 C 77 % 0 cb 1007,5 hPa 0,0 l/m 13,0 km/h (3 Bft) SO 145 0 min 0,000 mm 0 W/m 1,6 C 2,4 C 13,0 km/h (3 Bft) 0,00 %
04.02.2014 17:30 5,2 C 0,0 C 0,0 C 77 % 0 cb 1007,5 hPa 0,0 l/m 9,4 km/h (2 Bft) S-SO 150 0 min 0,000 mm 0 W/m 1,5 C 3,0 C 9,4 km/h (2 Bft) 0,00 %
04.02.2014 17:35 5,1 C 0,0 C 0,0 C 78 % 0 cb 1007,5 hPa 0,0 l/m 5,4 km/h (1 Bft) S 185 0 min 0,000 mm 0 W/m 1,6 C 4,0 C 5,4 km/h (1 Bft) 0,00 %
04.02.2014 17:40 4,9 C 0,0 C 0,0 C 78 % 0 cb 1007,5 hPa 0,0 l/m 3,6 km/h (1 Bft) S-SO 165 0 min 0,000 mm 0 W/m 1,4 C 4,9 C 3,6 km/h (1 Bft) 0,00 %
04.02.2014 17:45 4,8 C 0,0 C 0,0 C 78 % 0 cb 1007,5 hPa 0,0 l/m 3,3 km/h (1 Bft) S-SW 195 0 min 0,000 mm 0 W/m 1,3 C 4,8 C 3,3 km/h (1 Bft) 0,00 %
04.02.2014 17:50 4,4 C 0,0 C 0,0 C 79 % 0 cb 1007,5 hPa 0,0 l/m 4,8 km/h (1 Bft) S 170 0 min 0,000 mm 0 W/m 1,1 C 3,5 C 4,8 km/h (1 Bft) 0,00 %
04.02.2014 17:55 4,4 C 0,0 C 0,0 C 79 % 0 cb 1007,5 hPa 0,0 l/m 3,9 km/h (1 Bft) SW 215 0 min 0,000 mm 0 W/m 1,1 C 4,4 C 3,9 km/h (1 Bft) 0,00 %
04.02.2014 18:00 4,4 C 0,0 C 0,0 C 79 % 0 cb 1007,5 hPa 0,0 l/m 0,3 km/h (0 Bft) S-SW 200 0 min 0,000 mm 0 W/m 1,1 C 4,4 C 0,3 km/h (0 Bft) 0,00 %
04.02.2014 18:05 4,0 C 0,0 C 0,0 C 80 % 0 cb 1007,5 hPa 0,0 l/m 0,0 km/h (0 Bft) SW 225 0 min 0,000 mm 0 W/m 0,9 C 4,0 C 0,0 km/h (0 Bft) 0,00 %
04.02.2014 18:10 3,9 C 0,0 C 0,0 C 80 % 0 cb 1007,5 hPa 0,0 l/m 0,6 km/h (0 Bft) SO 145 0 min 0,000 mm 0 W/m 0,8 C 3,9 C 0,6 km/h (0 Bft) 0,00 %
04.02.2014 18:15 3,9 C 0,0 C 0,0 C 81 % 0 cb 1007,5 hPa 0,0 l/m 2,1 km/h (1 Bft) SO 130 0 min 0,000 mm 0 W/m 0,9 C 3,9 C 2,1 km/h (1 Bft) 0,00 %
04.02.2014 18:20 3,8 C 0,0 C 0,0 C 81 % 0 cb 1007,5 hPa 0,0 l/m 0,3 km/h (0 Bft) W 270 0 min 0,000 mm 0 W/m 0,8 C 3,8 C 0,3 km/h (0 Bft) 0,00 %
04.02.2014 18:25 3,8 C 0,0 C 0,0 C 81 % 0 cb 1007,5 hPa 0,0 l/m 1,2 km/h (1 Bft) W 260 0 min 0,000 mm 0 W/m 0,8 C 3,8 C 1,2 km/h (1 Bft) 0,00 %
04.02.2014 18:30 3,6 C 0,0 C 0,0 C 81 % 0 cb 1007,5 hPa 0,0 l/m 0,0 km/h (0 Bft) N 10 0 min 0,000 mm 0 W/m 0,7 C 3,6 C 0,0 km/h (0 Bft) 0,00 %
04.02.2014 18:35 3,5 C 0,0 C 0,0 C 81 % 0 cb 1007,5 hPa 0,0 l/m 0,0 km/h (0 Bft) N 350 0 min 0,000 mm 0 W/m 0,6 C 3,5 C 0,0 km/h (0 Bft) 0,00 %
04.02.2014 18:40 3,3 C 0,0 C 0,0 C 82 % 0 cb 1007,5 hPa 0,0 l/m 0,0 km/h (0 Bft) W-NW 285 0 min 0,000 mm 0 W/m 0,5 C 3,3 C 0,0 km/h (0 Bft) 0,00 %
04.02.2014 18:45 3,1 C 0,0 C 0,0 C 82 % 0 cb 1007,5 hPa 0,0 l/m 0,0 km/h (0 Bft) N-NW 345 0 min 0,000 mm 0 W/m 0,3 C 3,1 C 0,0 km/h (0 Bft) 0,00 %
04.02.2014 18:50 3,1 C 0,0 C 0,0 C 82 % 0 cb 1007,5 hPa 0,0 l/m 0,0 km/h (0 Bft) O-NO 60 0 min 0,000 mm 0 W/m 0,3 C 3,1 C 0,0 km/h (0 Bft) 0,00 %
04.02.2014 18:55 3,0 C 0,0 C 0,0 C 83 % 0 cb 1007,5 hPa 0,0 l/m 0,0 km/h (0 Bft) NW 305 0 min 0,000 mm 0 W/m 0,4 C 3,0 C 0,0 km/h (0 Bft) 0,00 %
04.02.2014 19:00 3,0 C 0,0 C 0,0 C 83 % 0 cb 1007,5 hPa 0,0 l/m 0,0 km/h (0 Bft) NW 305 0 min 0,000 mm 0 W/m 0,4 C 3,0 C 0,0 km/h (0 Bft) 0,00 %
04.02.2014 19:05 3,1 C 0,0 C 0,0 C 83 % 0 cb 1007,5 hPa 0,0 l/m 0,0 km/h (0 Bft) N 10 0 min 0,000 mm 0 W/m 0,5 C 3,1 C 0,0 km/h (0 Bft) 0,00 %
04.02.2014 19:10 3,1 C 0,0 C 0,0 C 83 % 0 cb 1007,5 hPa 0,0 l/m 0,0 km/h (0 Bft) O-NO 60 0 min 0,000 mm 0 W/m 0,5 C 3,1 C 0,0 km/h (0 Bft) 0,00 %
04.02.2014 19:15 3,1 C 0,0 C 0,0 C 84 % 0 cb 1007,5 hPa 0,0 l/m 0,0 km/h (0 Bft) N-NO 25 0 min 0,000 mm 0 W/m 0,7 C 3,1 C 0,0 km/h (0 Bft) 0,00 %
04.02.2014 19:20 3,3 C 0,0 C 0,0 C 84 % 0 cb 1007,5 hPa 0,0 l/m 0,0 km/h (0 Bft) NO 40 0 min 0,000 mm 0 W/m 0,9 C 3,3 C 0,0 km/h (0 Bft) 0,00 %
04.02.2014 19:25 3,3 C 0,0 C 0,0 C 83 % 0 cb 1007,5 hPa 0,0 l/m 0,0 km/h (0 Bft) N-NW 340 0 min 0,000 mm 0 W/m 0,7 C 3,3 C 0,0 km/h (0 Bft) 0,00 %
04.02.2014 19:30 3,3 C 0,0 C 0,0 C 83 % 0 cb 1007,5 hPa 0,0 l/m 0,0 km/h (0 Bft) W 280 0 min 0,000 mm 0 W/m 0,7 C 3,3 C 0,0 km/h (0 Bft) 0,00 %
04.02.2014 19:35 3,2 C 0,0 C 0,0 C 83 % 0 cb 1007,5 hPa 0,0 l/m 0,0 km/h (0 Bft) N-NW 335 0 min 0,000 mm 0 W/m 0,6 C 3,2 C 0,0 km/h (0 Bft) 0,00 %
04.02.2014 19:40 3,1 C 0,0 C 0,0 C 83 % 0 cb 1006,5 hPa 0,0 l/m 0,0 km/h (0 Bft) NW 315 0 min 0,000 mm 0 W/m 0,5 C 3,1 C 0,0 km/h (0 Bft) 0,00 %
04.02.2014 19:45 2,9 C 0,0 C 0,0 C 83 % 0 cb 1006,5 hPa 0,0 l/m 0,0 km/h (0 Bft) NW 315 0 min 0,000 mm 0 W/m 0,3 C 2,9 C 0,0 km/h (0 Bft) 0,00 %
04.02.2014 19:50 2,9 C 0,0 C 0,0 C 84 % 0 cb 1006,5 hPa 0,0 l/m 0,0 km/h (0 Bft) O 90 0 min 0,000 mm 0 W/m 0,5 C 2,9 C 0,0 km/h (0 Bft) 0,00 %
04.02.2014 19:55 2,8 C 0,0 C 0,0 C 84 % 0 cb 1006,5 hPa 0,0 l/m 0,0 km/h (0 Bft) NO 45 0 min 0,000 mm 0 W/m 0,4 C 2,8 C 0,0 km/h (0 Bft) 0,00 %
04.02.2014 20:00 2,7 C 0,0 C 0,0 C 84 % 0 cb 1006,5 hPa 0,0 l/m 0,0 km/h (0 Bft) O-NO 65 0 min 0,000 mm 0 W/m 0,3 C 2,7 C 0,0 km/h (0 Bft) 0,00 %
04.02.2014 20:05 2,6 C 0,0 C 0,0 C 84 % 0 cb 1006,5 hPa 0,0 l/m 0,0 km/h (0 Bft) N-NW 340 0 min 0,000 mm 0 W/m 0,2 C 2,6 C 0,0 km/h (0 Bft) 0,00 %
04.02.2014 20:10 2,2 C 0,0 C 0,0 C 84 % 0 cb 1006,5 hPa 0,0 l/m 0,0 km/h (0 Bft) N-NO 20 0 min 0,000 mm 0 W/m -0,2 C 2,2 C 0,0 km/h (0 Bft) 0,00 %
04.02.2014 20:15 2,0 C 0,0 C 0,0 C 84 % 0 cb 1006,5 hPa 0,0 l/m 0,0 km/h (0 Bft) N 10 0 min 0,000 mm 0 W/m -0,4 C 2,0 C 0,0 km/h (0 Bft) 0,00 %
04.02.2014 20:20 2,0 C 0,0 C 0,0 C 85 % 0 cb 1006,5 hPa 0,0 l/m 0,0 km/h (0 Bft) N-NW 335 0 min 0,000 mm 0 W/m -0,3 C 2,0 C 0,0 km/h (0 Bft) 0,00 %
04.02.2014 20:25 1,8 C 0,0 C 0,0 C 85 % 0 cb 1006,5 hPa 0,0 l/m 0,0 km/h (0 Bft) NW 320 0 min 0,000 mm 0 W/m -0,4 C 1,8 C 0,0 km/h (0 Bft) 0,00 %
04.02.2014 20:30 1,8 C 0,0 C 0,0 C 85 % 0 cb 1006,5 hPa 0,0 l/m 0,0 km/h (0 Bft) N 5 0 min 0,000 mm 0 W/m -0,4 C 1,8 C 0,0 km/h (0 Bft) 0,00 %
04.02.2014 20:35 1,8 C 0,0 C 0,0 C 86 % 0 cb 1006,5 hPa 0,0 l/m 0,0 km/h (0 Bft) N-NO 20 0 min 0,000 mm 0 W/m -0,3 C 1,8 C 0,0 km/h (0 Bft) 0,00 %
04.02.2014 20:40 1,6 C 0,0 C 0,0 C 86 % 0 cb 1006,5 hPa 0,0 l/m 0,0 km/h (0 Bft) N 10 0 min 0,000 mm 0 W/m -0,5 C 1,6 C 0,0 km/h (0 Bft) 0,00 %
04.02.2014 20:45 1,6 C 0,0 C 0,0 C 86 % 0 cb 1006,5 hPa 0,0 l/m 0,0 km/h (0 Bft) O-NO 60 0 min 0,000 mm 0 W/m -0,5 C 1,6 C 0,0 km/h (0 Bft) 0,00 %
04.02.2014 20:50 1,4 C 0,0 C 0,0 C 86 % 0 cb 1006,5 hPa 0,0 l/m 0,0 km/h (0 Bft) N-NO 20 0 min 0,000 mm 0 W/m -0,7 C 1,4 C 0,0 km/h (0 Bft) 0,00 %
04.02.2014 20:55 1,4 C 0,0 C 0,0 C 87 % 0 cb 1006,5 hPa 0,0 l/m 0,0 km/h (0 Bft) O-NO 70 0 min 0,000 mm 0 W/m -0,5 C 1,4 C 0,0 km/h (0 Bft) 0,00 %
04.02.2014 21:00 1,4 C 0,0 C 0,0 C 87 % 0 cb 1006,5 hPa 0,0 l/m 0,0 km/h (0 Bft) N 5 0 min 0,000 mm 0 W/m -0,5 C 1,4 C 0,0 km/h (0 Bft) 0,00 %
04.02.2014 21:05 1,4 C 0,0 C 0,0 C 87 % 0 cb 1006,5 hPa 0,0 l/m 0,0 km/h (0 Bft) NO 50 0 min 0,000 mm 0 W/m -0,5 C 1,4 C 0,0 km/h (0 Bft) 0,00 %
04.02.2014 21:10 1,4 C 0,0 C 0,0 C 87 % 0 cb 1005,5 hPa 0,0 l/m 0,0 km/h (0 Bft) N 5 0 min 0,000 mm 0 W/m -0,5 C 1,4 C 0,0 km/h (0 Bft) 0,00 %
04.02.2014 21:15 1,4 C 0,0 C 0,0 C 87 % 0 cb 1005,5 hPa 0,0 l/m 0,0 km/h (0 Bft) N-NO 25 0 min 0,000 mm 0 W/m -0,5 C 1,4 C 0,0 km/h (0 Bft) 0,00 %
04.02.2014 21:20 1,3 C 0,0 C 0,0 C 87 % 0 cb 1005,5 hPa 0,0 l/m 0,0 km/h (0 Bft) NO 35 0 min 0,000 mm 0 W/m -0,6 C 1,3 C 0,0 km/h (0 Bft) 0,00 %
04.02.2014 21:25 1,3 C 0,0 C 0,0 C 87 % 0 cb 1005,5 hPa 0,0 l/m 0,0 km/h (0 Bft) N-NW 330 0 min 0,000 mm 0 W/m -0,6 C 1,3 C 0,0 km/h (0 Bft) 0,00 %
04.02.2014 21:30 1,1 C 0,0 C 0,0 C 87 % 0 cb 1005,5 hPa 0,0 l/m 0,0 km/h (0 Bft) NW 320 0 min 0,000 mm 0 W/m -0,8 C 1,1 C 0,0 km/h (0 Bft) 0,00 %
04.02.2014 21:35 1,0 C 0,0 C 0,0 C 87 % 0 cb 1005,5 hPa 0,0 l/m 0,0 km/h (0 Bft) SO 145 0 min 0,000 mm 0 W/m -0,9 C 1,0 C 0,0 km/h (0 Bft) 0,00 %
04.02.2014 21:40 1,1 C 0,0 C 0,0 C 87 % 0 cb 1005,5 hPa 0,0 l/m 0,0 km/h (0 Bft) N-NW 330 0 min 0,000 mm 0 W/m -0,8 C 1,1 C 0,0 km/h (0 Bft) 0,00 %
04.02.2014 21:45 1,1 C 0,0 C 0,0 C 87 % 0 cb 1005,5 hPa 0,0 l/m 0,0 km/h (0 Bft) N-NW 345 0 min 0,000 mm 0 W/m -0,8 C 1,1 C 0,0 km/h (0 Bft) 0,00 %
04.02.2014 21:50 1,0 C 0,0 C 0,0 C 88 % 0 cb 1005,5 hPa 0,0 l/m 0,0 km/h (0 Bft) N 350 0 min 0,000 mm 0 W/m -0,8 C 1,0 C 0,0 km/h (0 Bft) 0,00 %
04.02.2014 21:55 1,0 C 0,0 C 0,0 C 88 % 0 cb 1005,5 hPa 0,0 l/m 0,0 km/h (0 Bft) NW 320 0 min 0,000 mm 0 W/m -0,8 C 1,0 C 0,0 km/h (0 Bft) 0,00 %
04.02.2014 22:00 1,0 C 0,0 C 0,0 C 88 % 0 cb 1005,5 hPa 0,0 l/m 0,0 km/h (0 Bft) N-NO 25 0 min 0,000 mm 0 W/m -0,8 C 1,0 C 0,0 km/h (0 Bft) 0,00 %
04.02.2014 22:05 1,1 C 0,0 C 0,0 C 88 % 0 cb 1005,5 hPa 0,0 l/m 0,0 km/h (0 Bft) N 0 0 min 0,000 mm 0 W/m -0,7 C 1,1 C 0,0 km/h (0 Bft) 0,00 %
04.02.2014 22:10 1,1 C 0,0 C 0,0 C 88 % 0 cb 1005,5 hPa 0,0 l/m 0,0 km/h (0 Bft) N 5 0 min 0,000 mm 0 W/m -0,7 C 1,1 C 0,0 km/h (0 Bft) 0,00 %
04.02.2014 22:15 1,3 C 0,0 C 0,0 C 88 % 0 cb 1005,5 hPa 0,0 l/m 0,0 km/h (0 Bft) N-NO 15 0 min 0,000 mm 0 W/m -0,5 C 1,3 C 0,0 km/h (0 Bft) 0,00 %
04.02.2014 22:20 1,1 C 0,0 C 0,0 C 88 % 0 cb 1005,5 hPa 0,0 l/m 0,0 km/h (0 Bft) N-NO 25 0 min 0,000 mm 0 W/m -0,7 C 1,1 C 0,0 km/h (0 Bft) 0,00 %
04.02.2014 22:25 1,2 C 0,0 C 0,0 C 88 % 0 cb 1005,5 hPa 0,0 l/m 0,0 km/h (0 Bft) O 90 0 min 0,000 mm 0 W/m -0,6 C 1,2 C 0,0 km/h (0 Bft) 0,00 %
04.02.2014 22:30 1,3 C 0,0 C 0,0 C 88 % 0 cb 1005,5 hPa 0,0 l/m 0,0 km/h (0 Bft) NO 40 0 min 0,000 mm 0 W/m -0,5 C 1,3 C 0,0 km/h (0 Bft) 0,00 %
04.02.2014 22:35 1,3 C 0,0 C 0,0 C 88 % 0 cb 1005,5 hPa 0,0 l/m 2,4 km/h (1 Bft) N 0 0 min 0,000 mm 0 W/m -0,5 C 1,3 C 2,4 km/h (1 Bft) 0,00 %
04.02.2014 22:40 1,2 C 0,0 C 0,0 C 88 % 0 cb 1005,5 hPa 0,0 l/m 0,0 km/h (0 Bft) N-NW 330 0 min 0,000 mm 0 W/m -0,6 C 1,2 C 0,0 km/h (0 Bft) 0,00 %
04.02.2014 22:45 1,2 C 0,0 C 0,0 C 88 % 0 cb 1005,5 hPa 0,0 l/m 0,0 km/h (0 Bft) N 355 0 min 0,000 mm 0 W/m -0,6 C 1,2 C 0,0 km/h (0 Bft) 0,00 %
04.02.2014 22:50 1,3 C 0,0 C 0,0 C 88 % 0 cb 1005,5 hPa 0,0 l/m 0,0 km/h (0 Bft) NO 35 0 min 0,000 mm 0 W/m -0,5 C 1,3 C 0,0 km/h (0 Bft) 0,00 %
04.02.2014 22:55 1,1 C 0,0 C 0,0 C 88 % 0 cb 1004,5 hPa 0,0 l/m 0,0 km/h (0 Bft) N-NW 335 0 min 0,000 mm 0 W/m -0,7 C 1,1 C 0,0 km/h (0 Bft) 0,00 %
04.02.2014 23:00 1,1 C 0,0 C 0,0 C 88 % 0 cb 1004,5 hPa 0,0 l/m 0,0 km/h (0 Bft) N-NW 340 0 min 0,000 mm 0 W/m -0,7 C 1,1 C 0,0 km/h (0 Bft) 0,00 %
04.02.2014 23:05 1,2 C 0,0 C 0,0 C 88 % 0 cb 1004,5 hPa 0,0 l/m 0,0 km/h (0 Bft) N-NW 330 0 min 0,000 mm 0 W/m -0,6 C 1,2 C 0,0 km/h (0 Bft) 0,00 %
04.02.2014 23:10 1,1 C 0,0 C 0,0 C 88 % 0 cb 1004,5 hPa 0,0 l/m 0,0 km/h (0 Bft) N 0 0 min 0,000 mm 0 W/m -0,7 C 1,1 C 0,0 km/h (0 Bft) 0,00 %
04.02.2014 23:15 1,2 C 0,0 C 0,0 C 88 % 0 cb 1004,5 hPa 0,0 l/m 0,0 km/h (0 Bft) N-NO 30 0 min 0,000 mm 0 W/m -0,6 C 1,2 C 0,0 km/h (0 Bft) 0,00 %
04.02.2014 23:20 1,1 C 0,0 C 0,0 C 88 % 0 cb 1004,5 hPa 0,0 l/m 0,0 km/h (0 Bft) N 0 0 min 0,000 mm 0 W/m -0,7 C 1,1 C 0,0 km/h (0 Bft) 0,00 %
04.02.2014 23:25 1,2 C 0,0 C 0,0 C 88 % 0 cb 1004,5 hPa 0,0 l/m 0,0 km/h (0 Bft) N 10 0 min 0,000 mm 0 W/m -0,6 C 1,2 C 0,0 km/h (0 Bft) 0,00 %
04.02.2014 23:30 1,3 C 0,0 C 0,0 C 88 % 0 cb 1004,5 hPa 0,0 l/m 0,0 km/h (0 Bft) N 0 0 min 0,000 mm 0 W/m -0,5 C 1,3 C 0,0 km/h (0 Bft) 0,00 %
04.02.2014 23:35 1,4 C 0,0 C 0,0 C 89 % 0 cb 1004,5 hPa 0,0 l/m 0,0 km/h (0 Bft) N 355 0 min 0,000 mm 0 W/m -0,2 C 1,4 C 0,0 km/h (0 Bft) 0,00 %
04.02.2014 23:40 1,5 C 0,0 C 0,0 C 88 % 0 cb 1004,5 hPa 0,0 l/m 0,0 km/h (0 Bft) NW 315 0 min 0,000 mm 0 W/m -0,3 C 1,5 C 0,0 km/h (0 Bft) 0,00 %
04.02.2014 23:45 1,5 C 0,0 C 0,0 C 88 % 0 cb 1004,5 hPa 0,0 l/m 0,0 km/h (0 Bft) O-NO 70 0 min 0,000 mm 0 W/m -0,3 C 1,5 C 0,0 km/h (0 Bft) 0,00 %
04.02.2014 23:50 1,6 C 0,0 C 0,0 C 88 % 0 cb 1004,5 hPa 0,0 l/m 0,3 km/h (0 Bft) N-NO 30 0 min 0,000 mm 0 W/m -0,2 C 1,6 C 0,3 km/h (0 Bft) 0,00 %
04.02.2014 23:55 1,5 C 0,0 C 0,0 C 88 % 0 cb 1004,5 hPa 0,0 l/m 0,0 km/h (0 Bft) NO 35 0 min 0,000 mm 0 W/m -0,3 C 1,5 C 0,0 km/h (0 Bft) 0,00 %
_ Min-Zeit 01:30 00:00 00:00 13:45 00:00 22:55 - 00:00 - - - - - 01:30 01:30 00:00 00:00
Minimum _ -0,1 C 0,0 C 0,0 C 71 % 0 cb 1004,5 hPa - 0,0 km/h (0 Bft) - - - - - -1,7 C -0,1 C 0,0 km/h (0 Bft) 0,00 %
_ Max-Zeit 13:40 00:00 00:00 00:00 00:00 10:40 00:00 15:15 - - 00:00 00:00 00:00 13:40 14:00 15:15 00:00
Maximum _ 7,6 C 0,0 C 0,0 C 89 % 0 cb 1009,5 hPa 0,0 l/m 16,0 km/h
W-SW (3 Bft)
- - 0 min 0,000 mm 0 W/m 2,9 C 6,9 C 16,0 km/h
W-SW (3 Bft)
0,00 %
Durchschnitt _ 2,8 C 0,0 C 0,0 C 83 % 0 cb 1007,4 hPa #0,0 l/m 2,3 km/h (1 Bft) S-SO - #0 min. #0,000 mm 0 W/m 0,2 C 2,4 C 2,3 km/h (1 Bft) 0,00 %
Wetterstation Gdesweiler